Flag for Germany Weather past 2 weeks in Biberach an der Riss, Baden-Württemberg, Germany

Now
39 °F

Overcast.


Feels Like: 32 °F
Forecast: 34 / 52 °F
Wind: 10 mph from Southwest

Location: Laupheim Airport

Current Time: Mar 27, 2015 at 7:56:46 AM

Latest Report: Mar 27, 2015 at 6:20 AM


Visibility: N/A

Pressure: 29.95 "Hg

Humidity: 87%

Dew point: 36 °F

Location of Biberach an der RissLocation

Historic Weather in Biberach an der Riss — Graph

°F

Biberach an der Riss temperature yesterday

Maximum temperature yesterday: 45 °F (at 12:20 AM)
Minimum temperature yesterday: 39 °F (at 5:20 AM)
Average temperature yesterday: 41 °F

Past Weeks' High & Low Weather Summary

 TemperatureHumidityPressure
High61 °F (Mar 18, 2:20 PM)100% (Mar 14, 4:20 AM)30.39 "Hg (Mar 14, 4:20 AM)
Low25 °F (Mar 12, 6:20 AM)31% (Mar 20, 4:20 PM)29.53 "Hg (Mar 25, 2:20 PM)
Average41 °F75%30.04 "Hg
* Reported Mar 12 6:20 AM — Mar 27 6:20 AM, Biberach an der Riss, Weather by CustomWeather, © 2015

Note: Actual official high and low records may vary slightly from our data, if they occured in-between our weather recording intervals... More about our weather records

Advertising

Biberach an der Riss weather history for previous 24 hours

 ConditionsComfort  
Time TempWeatherWind HumidityBarometerVisibility
6:20 AM
Fri, Mar 27
39 °FOvercast.10 mph87%29.95 "HgN/A
5:20 AM39 °FOvercast.8 mph87%29.95 "HgN/A
4:20 AM39 °FOvercast.7 mph87%29.92 "HgN/A
3:20 AM39 °FOvercast.8 mph87%29.92 "HgN/A
2:20 AM39 °FLight rain. Overcast.10 mph87%29.89 "HgN/A
1:20 AM39 °FLight rain. Overcast.9 mph87%29.89 "HgN/A
12:20 AM39 °FPassing clouds.8 mph87%29.89 "HgN/A
11:20 PM
Thu, Mar 26
41 °FLight rain. Passing clouds.13 mph76%29.86 "HgN/A
10:20 PM41 °FPassing clouds.12 mph81%29.86 "HgN/A
9:20 PM41 °FPassing clouds.10 mph81%29.86 "HgN/A
8:20 PM41 °FPassing clouds.10 mph87%29.83 "HgN/A
7:20 PM43 °FOvercast.7 mph81%29.83 "HgN/A
7:00 PM43 °FOvercast.9 mph87%29.83 "HgN/A
6:20 PM43 °FOvercast.8 mph81%29.83 "HgN/A
5:20 PM43 °FOvercast.5 mph81%29.80 "HgN/A
4:20 PM43 °FOvercast.6 mph81%29.80 "HgN/A
3:20 PM43 °FMore clouds than sun.7 mph81%29.80 "HgN/A
2:20 PM41 °FOvercast.8 mph87%29.80 "HgN/A
1:20 PM41 °FMore clouds than sun.6 mph87%29.80 "HgN/A
12:20 PM41 °FMore clouds than sun.7 mph87%29.80 "HgN/A
11:20 AM41 °FMore clouds than sun.9 mph87%29.80 "HgN/A
10:20 AM39 °FPartly sunny.8 mph93%29.80 "Hg5 mi
9:20 AM39 °FLight rain. Low clouds.9 mph93%29.80 "Hg5 mi
8:53 AM39 °FLight rain. More clouds than sun.8 mph93%29.80 "Hg5 mi
8:20 AM39 °FLight rain. More clouds than sun.10 mph93%29.80 "Hg4 mi
7:20 AM39 °FLight rain. Low clouds.9 mph93%29.77 "Hg4 mi
Weather by CustomWeather, © 2015

See weather overviewHow to use our weather pages